CW2857 Weather Reports


time (UTC)temp
F
wind
direction
speed
knots
gust
knots
rain 1hr
in
rain 24hr
in
rain mn
in
humidity
%
barometer
mb
20260905163001 63 298 0.9 4.3 0.00 0.00 0.00 40 1023.4
20260905162601 63 336 0.9 4.3 0.00 0.00 0.00 40 1023.4
20260905162058 63 32 0.9 4.3 0.00 0.00 0.00 40 1023.4
20260905161557 62 355 0.9 3.5 0.00 0.00 0.00 41 1023.5
20260905161056 62 336 0.9 4.3 0.00 0.00 0.00 43 1023.4
20260905160554 61 360 0.9 5.2 0.00 0.00 0.00 44 1023.5
20260905160053 60 333 2.6 5.2 0.00 0.00 0.00 45 1023.5
20260905155552 59 17 2.6 4.3 0.00 0.00 0.00 46 1023.5
20260905155150 59 252 0.0 3.5 0.00 0.00 0.00 46 1023.5
20260905154557 59 344 0.9 3.5 0.00 0.00 0.00 47 1023.5
20260905154052 58 338 1.7 3.5 0.00 0.00 0.00 48 1023.6
20260905153552 57 336 0.0 2.6 0.00 0.00 0.00 48 1023.5
20260905153048 57 341 0.0 2.6 0.00 0.00 0.00 49 1023.5
20260905152548 58 304 0.9 4.3 0.00 0.00 0.00 48 1023.6
20260905152048 58 326 0.9 4.3 0.00 0.00 0.00 48 1023.6
20260905151555 58 355 0.0 1.7 0.00 0.00 0.00 49 1023.5
20260905151045 57 5 0.0 2.6 0.00 0.00 0.00 50 1023.4
20260905150544 56 360 0.9 2.6 0.00 0.00 0.00 51 1023.4
20260905150043 56 348 0.0 2.6 0.00 0.00 0.00 52 1023.4
20260905145544 55 5 0.0 2.6 0.00 0.00 0.00 53 1023.4
20260905145042 54 348 0.0 2.6 0.00 0.00 0.00 55 1023.4
20260905144546 53 338 0.0 2.6 0.00 0.00 0.00 57 1023.5
20260905144041 53 280 0.0 3.5 0.00 0.00 0.00 57 1023.4
20260905143541 53 265 1.7 3.5 0.00 0.00 0.00 58 1023.4
20260905143041 52 222 0.0 0.0 0.00 0.00 0.00 59 1023.3
20260905142543 52 222 0.0 0.0 0.00 0.00 0.00 61 1023.3
20260905142039 51 222 0.0 0.0 0.00 0.00 0.00 62 1023.2
20260905141539 50 222 0.0 0.0 0.00 0.00 0.00 62 1023.1
20260905141038 50 222 0.0 0.0 0.00 0.00 0.00 62 1023.0
20260905140537 50 222 0.0 0.0 0.00 0.00 0.00 62 1022.9
20260905140038 50 222 0.0 0.0 0.00 0.00 0.00 62 1022.8
20260905135539 49 222 0.0 0.9 0.00 0.00 0.00 62 1022.7
20260905135035 49 222 0.0 0.9 0.00 0.00 0.00 62 1022.7
20260905134539 49 222 0.0 0.0 0.00 0.00 0.00 62 1022.6
20260905134037 49 222 0.0 0.9 0.00 0.00 0.00 61 1022.5
20260905133533 50 222 0.0 1.7 0.00 0.00 0.00 61 1022.5
20260905133035 50 221 0.0 2.6 0.00 0.00 0.00 61 1022.5
20260905132532 50 212 0.9 2.6 0.00 0.00 0.00 61 1022.5
20260905132032 49 202 0.9 2.6 0.00 0.00 0.00 62 1022.5
20260905131531 49 232 0.0 1.7 0.00 0.00 0.00 62 1022.3
20260905131031 49 256 0.0 0.0 0.00 0.00 0.00 61 1022.3
20260905130531 50 256 0.0 0.9 0.00 0.00 0.00 61 1022.3
20260905130030 50 256 0.0 1.7 0.00 0.00 0.00 60 1022.2
20260905125529 50 256 0.0 2.6 0.00 0.00 0.00 60 1022.2
20260905125029 51 253 0.0 2.6 0.00 0.00 0.00 59 1022.2
20260905124533 52 257 0.0 4.3 0.00 0.00 0.00 58 1022.1
20260905124028 52 288 1.7 3.5 0.00 0.00 0.00 59 1022.2
20260905123530 52 284 0.9 6.1 0.00 0.00 0.00 59 1022.2
20260905123055 52 287 1.7 6.1 0.00 0.00 0.00 58 1022.2
20260905122529 52 271 3.5 6.1 0.00 0.00 0.00 58 1022.2
20260905122030 52 287 2.6 6.1 0.00 0.00 0.00 58 1022.2
20260905121526 52 290 1.7 5.2 0.00 0.00 0.00 59 1022.2
20260905121027 51 287 1.7 3.5 0.00 0.00 0.00 61 1022.1
20260905120527 50 269 0.9 3.5 0.00 0.00 0.00 62 1022.2
20260905120029 49 285 0.0 3.5 0.00 0.00 0.00 62 1022.1
20260905115529 49 209 0.0 0.9 0.00 0.00 0.00 62 1022.1
20260905115025 49 209 0.0 0.9 0.00 0.00 0.00 63 1022.0
20260905114524 49 209 0.0 0.9 0.00 0.00 0.00 62 1022.0
20260905114024 49 209 0.0 1.7 0.00 0.00 0.00 63 1022.1
20260905113523 48 209 0.9 1.7 0.00 0.00 0.00 62 1022.0
20260905113027 48 209 0.0 0.9 0.00 0.00 0.00 62 1022.0
20260905112522 49 209 0.0 1.7 0.00 0.00 0.00 62 1022.0
20260905112024 49 209 0.0 0.9 0.00 0.00 0.00 61 1022.0
20260905111523 50 209 0.0 0.0 0.00 0.00 0.00 61 1022.0
20260905111020 50 209 0.0 1.7 0.00 0.00 0.00 62 1021.9
20260905110528 50 209 0.0 1.7 0.00 0.00 0.00 62 1021.9
20260905110018 50 209 0.0 0.0 0.00 0.00 0.00 62 1021.9
20260905105518 50 209 0.0 0.9 0.00 0.00 0.00 62 1021.8
20260905105017 50 209 0.0 1.7 0.00 0.00 0.00 62 1021.8
20260905104517 50 209 0.0 1.7 0.00 0.00 0.00 60 1021.8
20260905104015 51 208 0.0 1.7 0.00 0.00 0.00 60 1021.8
20260905103515 51 236 0.0 1.7 0.00 0.00 0.00 60 1021.8
20260905103014 51 257 0.0 0.0 0.00 0.00 0.00 60 1021.7
20260905102513 52 257 0.0 0.0 0.00 0.00 0.00 59 1021.7
20260905102013 52 257 0.0 0.0 0.00 0.00 0.00 59 1021.6
20260905101513 52 257 0.0 0.0 0.00 0.00 0.00 59 1021.6
20260905101012 52 257 0.0 0.9 0.00 0.00 0.00 59 1021.7
20260905100512 52 257 0.0 1.7 0.00 0.00 0.00 58 1021.7
20260905100011 53 217 0.0 0.9 0.00 0.00 0.00 58 1021.6
20260905095511 53 215 0.0 1.7 0.00 0.00 0.00 58 1021.5
20260905095012 53 221 0.0 2.6 0.00 0.00 0.00 58 1021.5
20260905094510 53 221 0.9 3.5 0.00 0.00 0.00 58 1021.6
20260905094009 52 252 1.7 3.5 0.00 0.00 0.00 58 1021.5
20260905093514 52 263 1.7 2.6 0.00 0.00 0.00 59 1021.4
20260905093009 52 234 0.0 2.6 0.00 0.00 0.00 58 1021.4
20260905092511 52 236 0.0 1.7 0.00 0.00 0.00 58 1021.5
20260905092009 52 236 0.0 1.7 0.00 0.00 0.00 58 1021.4
20260905091509 52 242 0.0 2.6 0.00 0.00 0.00 58 1021.5
20260905091008 52 243 0.9 1.7 0.00 0.00 0.00 59 1021.5
20260905090508 52 241 0.9 1.7 0.00 0.00 0.00 58 1021.4
20260905090008 52 241 0.0 1.7 0.00 0.00 0.00 58 1021.5
20260905085511 52 249 0.9 2.6 0.00 0.00 0.00 58 1021.4
20260905085009 52 248 0.9 2.6 0.00 0.00 0.00 57 1021.4
20260905084505 52 210 0.0 1.7 0.00 0.00 0.00 56 1021.4
20260905084004 53 210 0.0 1.7 0.00 0.00 0.00 55 1021.3
20260905083503 53 196 0.0 0.9 0.00 0.00 0.00 55 1021.4
20260905083002 54 196 0.0 0.9 0.00 0.00 0.00 55 1021.3
20260905082501 54 193 0.0 2.6 0.00 0.00 0.00 54 1021.3
20260905082001 54 193 0.9 2.6 0.00 0.00 0.00 54 1021.3
20260905081602 55 260 0.0 1.7 0.00 0.00 0.00 54 1021.2
20260905081100 55 342 0.0 1.7 0.00 0.00 0.00 53 1021.2
20260905080559 55 342 0.0 4.3 0.00 0.00 0.00 53 1021.3
20260905080138 56 294 0.9 4.3 0.00 0.00 0.00 53 1021.2
20260905075557 56 279 1.7 4.3 0.00 0.00 0.00 53 1021.2
20260905075057 55 288 1.7 4.3 0.00 0.00 0.00 53 1021.1
20260905074557 55 291 1.7 4.3 0.00 0.00 0.00 53 1021.1
20260905074157 55 277 0.9 3.5 0.00 0.00 0.00 54 1021.1
20260905073556 54 311 0.9 3.5 0.00 0.00 0.00 55 1021.0
20260905073055 54 344 0.9 2.6 0.00 0.00 0.00 54 1020.9
20260905072557 55 257 0.0 0.9 0.00 0.00 0.00 54 1021.0
20260905072054 55 300 0.0 1.7 0.00 0.00 0.00 54 1020.9
20260905071553 55 341 0.0 3.5 0.00 0.00 0.00 53 1020.9
20260905071051 55 293 0.0 2.6 0.00 0.00 0.00 52 1020.8
20260905070549 55 296 0.0 2.6 0.00 0.00 0.00 53 1020.8
20260905070053 56 281 0.0 2.6 0.00 0.00 0.00 52 1020.7
20260905065547 56 282 0.0 5.2 0.00 0.00 0.00 52 1020.7
20260905065045 56 269 0.9 5.2 0.00 0.00 0.00 52 1020.6
20260905064553 56 257 0.9 4.3 0.00 0.00 0.00 51 1020.5
20260905064044 56 279 0.9 4.3 0.00 0.00 0.00 52 1020.5
20260905063544 56 218 0.0 0.9 0.00 0.00 0.00 51 1020.5
20260905063044 56 319 0.0 0.9 0.00 0.00 0.00 50 1020.4
20260905062541 57 319 0.0 1.7 0.00 0.00 0.00 49 1020.3
20260905062041 57 319 0.0 3.5 0.00 0.00 0.00 49 1020.2
20260905061541 57 302 0.9 3.5 0.00 0.00 0.00 48 1020.1
20260905061040 58 289 0.9 5.2 0.00 0.00 0.00 48 1020.0
20260905060539 58 279 0.9 6.1 0.00 0.00 0.00 48 1020.0
20260905060049 58 268 1.7 8.7 0.00 0.00 0.00 48 1019.9
20260905055541 58 325 0.9 8.7 0.00 0.00 0.00 48 1019.9
20260905055043 58 271 1.7 7.0 0.00 0.00 0.00 48 1019.8
20260905054543 58 309 2.6 7.0 0.00 0.00 0.00 48 1019.7
20260905054036 58 254 2.6 7.0 0.00 0.00 0.00 48 1019.7
20260905053538 58 331 3.5 7.0 0.00 0.00 0.00 48 1019.6
20260905053036 58 248 1.7 7.0 0.00 0.00 0.00 48 1019.5
20260905052534 58 267 3.5 7.0 0.00 0.00 0.00 48 1019.5
20260905052035 58 265 2.6 5.2 0.00 0.00 0.00 48 1019.6
20260905051548 58 269 1.7 4.3 0.00 0.00 0.00 47 1019.6
20260905051034 59 269 1.7 7.0 0.00 0.00 0.00 47 1019.5
20260905050524 59 270 2.6 6.1 0.00 0.00 0.00 47 1019.4
20260905050026 59 275 2.6 7.0 0.00 0.00 0.00 47 1019.5
20260905045522 59 339 2.6 8.7 0.00 0.00 0.00 47 1019.5
20260905045025 59 324 2.6 8.7 0.00 0.00 0.00 46 1019.3
20260905044525 60 259 2.6 7.0 0.00 0.00 0.00 45 1019.2
20260905044021 60 338 0.9 8.7 0.00 0.00 0.00 43 1019.2
20260905043521 61 338 2.6 8.7 0.00 0.00 0.00 40 1019.3
20260905043020 61 311 2.6 10.4 0.00 0.00 0.00 40 1019.2
20260905042523 62 275 5.2 10.4 0.00 0.00 0.00 40 1019.1
20260905042019 62 275 3.5 7.8 0.00 0.00 0.00 39 1019.0
20260905041519 62 281 3.5 9.6 0.00 0.00 0.00 39 1018.9
20260905041018 62 267 7.0 10.4 0.00 0.00 0.00 39 1018.9
20260905040517 62 249 4.3 10.4 0.00 0.00 0.00 38 1018.9
20260905040021 62 281 7.0 9.6 0.00 0.00 0.00 39 1018.8
20260905035516 63 272 4.3 7.8 0.00 0.00 0.00 38 1018.7
20260905035016 63 270 4.3 11.3 0.00 0.00 0.00 37 1018.6
20260905034517 63 261 6.1 11.3 0.00 0.00 0.00 37 1018.6
20260905034018 63 250 3.5 10.4 0.00 0.00 0.00 38 1018.5
20260905033517 64 267 6.1 10.4 0.00 0.00 0.00 38 1018.5
20260905033014 64 278 7.0 10.4 0.00 0.00 0.00 38 1018.3
20260905032513 64 294 4.3 10.4 0.00 0.00 0.00 38 1018.3
20260905032012 64 287 3.5 15.6 0.00 0.00 0.00 38 1018.2
20260905031515 64 250 7.8 15.6 0.00 0.00 0.00 37 1018.0
20260905031010 65 283 8.7 14.8 0.00 0.00 0.00 37 1017.9
20260905030511 65 265 7.0 13.9 0.00 0.00 0.00 35 1017.8
20260905030012 65 231 7.0 13.9 0.00 0.00 0.00 35 1017.8
20260905025510 65 250 6.1 11.3 0.00 0.00 0.00 35 1017.9
20260905025010 65 245 5.2 11.3 0.00 0.00 0.00 35 1017.9
20260905024509 66 273 7.0 12.2 0.00 0.00 0.00 35 1017.8
20260905024008 66 279 7.8 13.9 0.00 0.00 0.00 34 1017.7
20260905023509 66 264 6.1 14.8 0.00 0.00 0.00 34 1017.8
20260905023015 66 265 8.7 14.8 0.00 0.00 0.00 34 1017.6
20260905022506 66 280 5.2 16.5 0.00 0.00 0.00 33 1017.6
20260905022009 67 263 8.7 18.2 0.00 0.00 0.00 33 1017.6
20260905021505 67 265 11.3 18.2 0.00 0.00 0.00 34 1017.4
20260905021005 67 249 10.4 16.5 0.00 0.00 0.00 32 1017.4
20260905020504 68 290 9.6 15.6 0.00 0.00 0.00 32 1017.4
20260905020004 68 297 6.1 13.9 0.00 0.00 0.00 31 1017.4
20260905015503 69 269 2.6 13.9 0.00 0.00 0.00 30 1017.3
20260905015002 69 288 7.8 14.8 0.00 0.00 0.00 29 1017.3
20260905014503 69 256 8.7 14.8 0.00 0.00 0.00 29 1017.2
20260905014002 69 287 5.2 14.8 0.00 0.00 0.00 28 1017.2
20260905013501 69 305 8.7 21.7 0.00 0.00 0.00 30 1017.2
20260905013001 69 309 8.7 21.7 0.00 0.00 0.00 29 1017.1
20260905012601 69 263 7.8 20.9 0.00 0.00 0.00 28 1017.0
20260905012100 70 245 11.3 20.9 0.00 0.00 0.00 28 1017.0
20260905011618 70 273 5.2 13.9 0.00 0.00 0.00 27 1016.9
20260905011059 71 215 5.2 16.5 0.00 0.00 0.00 27 1016.9
20260905010600 71 244 7.8 16.5 0.00 0.00 0.00 27 1016.7
20260905010059 71 210 9.6 21.7 0.00 0.00 0.00 27 1016.7
20260905005559 72 189 6.1 18.2 0.00 0.00 0.00 27 1016.7
20260905005100 72 250 6.1 17.4 0.00 0.00 0.00 26 1016.7
20260905004559 72 192 8.7 20.9 0.00 0.00 0.00 26 1016.6
20260905004059 72 194 7.8 20.9 0.00 0.00 0.00 26 1016.6
20260905003559 72 173 11.3 20.9 0.00 0.00 0.00 26 1016.6
20260905003059 72 226 8.7 20.9 0.00 0.00 0.00 25 1016.4
20260905002601 72 213 8.7 24.3 0.00 0.00 0.00 26 1016.4
20260905002102 72 194 10.4 24.3 0.00 0.00 0.00 26 1016.4
20260905001608 72 246 13.0 23.5 0.00 0.00 0.00 25 1016.3
20260905001057 72 280 9.6 24.3 0.00 0.00 0.00 25 1016.3
20260905000559 72 329 12.2 24.3 0.00 0.00 0.00 26 1016.3
20260905000100 73 263 12.2 23.5 0.00 0.00 0.00 25 1016.3
20260904235557 72 265 11.3 26.9 0.00 0.00 0.00 26 1016.1
20260904235158 72 250 15.6 26.9 0.00 0.00 0.00 25 1016.1
20260904234556 73 240 14.8 24.3 0.00 0.00 0.00 25 1016.1
20260904234058 73 223 13.0 28.7 0.00 0.00 0.00 25 1016.1
20260904233559 73 272 14.8 28.7 0.00 0.00 0.00 24 1016.1
20260904233106 74 221 7.8 23.5 0.00 0.00 0.00 24 1016.0
20260904232555 73 262 8.7 29.5 0.00 0.00 0.00 25 1016.0
20260904232056 73 290 11.3 29.5 0.00 0.00 0.00 25 1015.8
20260904231555 73 224 12.2 20.9 0.00 0.00 0.00 25 1015.9
20260904231055 74 186 13.0 20.9 0.00 0.00 0.00 24 1015.9
20260904230554 74 198 9.6 21.7 0.00 0.00 0.00 24 1016.0
20260904230054 73 236 11.3 21.7 0.00 0.00 0.00 25 1015.8
20260904225554 74 215 13.0 24.3 0.00 0.00 0.00 24 1015.9
20260904225054 74 196 13.0 24.3 0.00 0.00 0.00 24 1015.7
20260904224553 75 169 13.0 22.6 0.00 0.00 0.00 23 1015.8
20260904224053 74 177 12.2 19.1 0.00 0.00 0.00 24 1015.9
20260904223553 74 190 11.3 22.6 0.00 0.00 0.00 24 1016.0
20260904223055 74 240 11.3 22.6 0.00 0.00 0.00 25 1015.9
20260904222553 74 229 11.3 21.7 0.00 0.00 0.00 24 1015.9
20260904222052 76 210 10.4 21.7 0.00 0.00 0.00 24 1016.0
20260904221554 75 238 11.3 21.7 0.00 0.00 0.00 25 1015.9
20260904221051 75 188 10.4 25.2 0.00 0.00 0.00 25 1015.9
20260904220551 75 226 11.3 26.9 0.00 0.00 0.00 25 1016.1
20260904220150 74 236 11.3 26.9 0.00 0.00 0.00 26 1016.1
20260904215549 74 269 8.7 22.6 0.00 0.00 0.00 26 1016.1
20260904215050 75 244 8.7 28.7 0.00 0.00 0.00 25 1016.1
20260904214550 74 188 12.2 28.7 0.00 0.00 0.00 26 1016.2
20260904214049 74 267 9.6 23.5 0.00 0.00 0.00 26 1016.1
20260904213547 73 251 12.2 22.6 0.00 0.00 0.00 27 1016.2
20260904213050 73 232 11.3 19.1 0.00 0.00 0.00 26 1016.3
20260904212549 73 223 10.4 19.1 0.00 0.00 0.00 27 1016.2
20260904212047 73 239 12.2 20.0 0.00 0.00 0.00 26 1016.2
20260904211547 74 260 10.4 23.5 0.00 0.00 0.00 26 1016.2
20260904211046 73 263 11.3 23.5 0.00 0.00 0.00 27 1016.2
20260904210548 73 240 11.3 20.9 0.00 0.00 0.00 26 1016.2
20260904210044 73 234 13.0 20.0 0.00 0.00 0.00 26 1016.3
20260904205546 72 215 11.3 18.2 0.00 0.00 0.00 27 1016.3
20260904205043 71 227 9.6 19.1 0.00 0.00 0.00 28 1016.2
20260904204544 72 210 7.8 20.0 0.00 0.00 0.00 28 1016.3
20260904204043 72 211 9.6 20.9 0.00 0.00 0.00 27 1016.3
20260904203543 72 219 12.2 20.9 0.00 0.00 0.00 27 1016.2
20260904203044 72 254 8.7 20.9 0.00 0.00 0.00 28 1016.2
20260904202541 71 202 10.4 20.9 0.00 0.00 0.00 28 1016.3
20260904202040 70 196 10.4 19.1 0.00 0.00 0.00 28 1016.4
20260904201549 70 214 9.6 19.1 0.00 0.00 0.00 28 1016.3
20260904201040 69 217 9.6 19.1 0.00 0.00 0.00 28 1016.3
20260904200539 70 195 12.2 20.0 0.00 0.00 0.00 29 1016.4
20260904200038 69 217 10.4 20.0 0.00 0.00 0.00 30 1016.3
20260904195537 69 259 11.3 20.0 0.00 0.00 0.00 31 1016.2
20260904195041 69 240 7.0 17.4 0.00 0.00 0.00 31 1016.3
20260904194537 69 230 8.7 17.4 0.00 0.00 0.00 31 1016.4
20260904194035 68 315 4.3 10.4 0.00 0.00 0.00 36 1016.5
20260904193535 68 304 3.5 10.4 0.00 0.00 0.00 39 1016.6
20260904193035 67 336 6.1 10.4 0.00 0.00 0.00 41 1016.7
20260904192533 67 284 4.3 8.7 0.00 0.00 0.00 42 1016.6
20260904192034 67 196 5.2 11.3 0.00 0.00 0.00 42 1016.7
20260904191536 67 38 0.0 11.3 0.00 0.00 0.00 44 1016.7
20260904191030 66 333 3.5 11.3 0.00 0.00 0.00 46 1016.7
20260904190529 65 341 6.1 11.3 0.00 0.00 0.00 48 1016.8
20260904190028 65 318 7.0 11.3 0.00 0.00 0.00 49 1016.8
20260904185529 65 321 5.2 13.0 0.00 0.00 0.00 51 1016.8
20260904185029 64 266 7.0 13.0 0.00 0.00 0.00 52 1016.9
20260904184531 63 355 7.0 13.9 0.00 0.00 0.00 54 1016.9
20260904184031 64 279 6.1 12.2 0.00 0.00 0.00 54 1016.9
20260904183532 63 261 7.8 12.2 0.00 0.00 0.00 55 1017.0
20260904183027 64 344 7.0 13.0 0.00 0.00 0.00 53 1017.0
20260904182527 65 96 5.2 13.0 0.00 0.00 0.00 52 1017.1
20260904182028 65 348 7.0 16.5 0.00 0.00 0.00 53 1016.9
20260904181525 65 281 4.3 13.9 0.00 0.00 0.00 55 1016.9
20260904181025 63 271 7.8 14.8 0.00 0.00 0.00 57 1016.9
20260904180528 63 301 7.0 14.8 0.00 0.00 0.00 59 1016.9
20260904180023 62 337 7.0 14.8 0.00 0.00 0.00 61 1016.9
20260904175523 62 271 7.8 13.9 0.00 0.00 0.00 59 1017.0
20260904175023 62 5 5.2 13.9 0.00 0.00 0.00 58 1017.1
20260904174527 62 314 7.0 13.9 0.00 0.00 0.00 59 1017.0
20260904174022 61 346 6.1 18.2 0.00 0.00 0.00 63 1016.9
20260904173521 60 275 8.7 18.2 0.00 0.00 0.00 64 1017.0
20260904173024 61 303 5.2 15.6 0.00 0.00 0.00 63 1016.9
20260904172527 61 279 7.8 15.6 0.00 0.00 0.00 62 1016.9
20260904172022 61 276 5.2 13.0 0.00 0.00 0.00 60 1016.9
20260904171530 60 286 4.3 14.8 0.00 0.00 0.00 64 1016.9
20260904171019 60 338 6.1 13.0 0.00 0.00 0.00 64 1016.8
20260904170518 60 314 7.0 13.0 0.00 0.00 0.00 64 1016.8
20260904170018 60 279 6.1 13.9 0.00 0.00 0.00 66 1016.7
20260904165518 60 280 7.0 13.0 0.00 0.00 0.00 65 1016.7
20260904165018 60 319 7.0 13.9 0.00 0.00 0.00 64 1016.7
20260904164517 59 288 7.8 13.9 0.00 0.00 0.00 64 1016.7
20260904164017 59 360 5.2 14.8 0.00 0.00 0.00 66 1016.6
20260904163522 59 264 7.8 13.9 0.00 0.00 0.00 65 1016.5